#timestamp,LO_Frequency,Hit,StdDev 
1624654815.7,286046996.6,N
1624654835.5,286046998.4,N
1624654855.4,286046999.2,N
1624654875.4,286046996.9,N
1624654895.3,286046997.0,N
1624654915.1,286046999.6,N
1624654935.9,286046998.9,N
1624654955.7,286046999.3,N
1624654975.6,286046998.9,N
1624654995.8,286046998.7,N
1624655015.7,286046999.6,N
1624655035.5,286046996.9,N
1624655055.3,286046999.5,N
1624655075.2,286046999.4,N
1624655095.9,286046999.6,N
1624655115.7,286046997.3,N
1624655135.6,286046997.9,N
1624655155.4,286046997.9,N
1624655175.3,286046995.8,Y
1624655195.1,286046997.9,P
1624655196.0,286046997.9,P
1624655215.8,286046997.9,P
1624655235.7,286046997.5,Y
1624655255.5,286047000.7,P
1624655275.4,286047001.1,N
1624655295.2,286047000.9,N
1624655315.0,286046998.5,N
1624655315.9,286046998.5,N
1624655335.8,286046998.6,N
1624655355.6,286046999.6,N
1624655375.4,286046999.2,N
1624655395.3,286046996.5,Y
1624655415.1,286046998.3,P
1624655435.9,286046999.5,N
1624655455.7,286046997.2,P
1624655475.5,286046996.9,Y
1624655525.4,286047001.1,E
1624655535.3,286046998.4,N
1624655555.2,286046998.9,P
1624655575.0,286046998.2,P
1624655575.9,286046998.2,Y
1624655595.8,286047002.5,P
1624655615.6,286047002.1,N
1624655635.4,286047002.5,N
1624655655.3,286047002.0,N
1624655675.1,286047001.6,N
1624655695.8,286047001.5,N
1624655715.7,286047003.9,Y
1624655735.5,286047000.5,P
1624655755.4,286047001.1,N
1624655775.2,286046998.6,P
1624655795.0,286046998.5,N
1624655796.0,286046998.5,N
1624655815.8,286046999.8,N
1624655835.6,286047000.2,N
1624655855.5,286047001.5,N
1624655875.3,286047003.9,Y
1624655895.1,286047004.3,P
1624655915.9,286047002.2,N
1624655935.7,286047002.6,N
1624655955.6,286047001.8,N
1624655975.4,286047001.8,N
1624655995.2,286047001.8,N
1624656015.1,286047002.1,N
1624656016.0,286047002.1,N
1624656035.8,286047004.1,Y
1624656055.6,286047000.2,P
1624656075.5,286047000.3,N
1624656095.3,286047000.7,N
1624656115.2,286046998.3,N
1624656135.0,286047000.8,N
1624656135.9,286047000.8,N
1624656155.7,286046998.2,N
1624656175.6,286047000.6,N
1624656195.4,286047000.4,N
1624656215.3,286047001.0,N
1624656235.1,286047001.0,N
1624656236.0,286047001.0,N
1624656255.8,286047002.2,N
1624656275.7,286046999.8,N
1624656295.5,286047000.5,N
1624656315.3,286047000.6,N
1624656335.2,286047002.5,N
1624656355.0,286047000.4,N
1624656355.9,286047000.4,N
1624656375.8,286047001.0,N
1624656395.6,286047001.0,N
1624656415.4,286047002.5,N
1624656435.3,286047001.5,N
1624656455.1,286047002.2,N
1624656475.8,286047001.6,N
1624656495.7,286046998.2,N
1624656515.5,286047000.7,N
1624656535.4,286047001.0,N
1624656555.2,286047000.1,N
1624656575.0,286046999.7,N
1624656575.9,286046999.7,N
1624656595.8,286047002.4,N
1624656615.6,286047000.6,N
1624656635.4,286047002.7,N
1624656655.3,286046998.2,N
1624656675.1,286046999.8,N
1624656695.9,286047004.3,Y
1624656715.7,286047001.6,P
1624656735.5,286047001.3,N
1624656755.4,286047003.7,P
1624656775.2,286047003.9,Y
1624656795.1,286047002.7,P
1624656796.0,286047002.7,P
1624656815.8,286047002.7,P
1624656835.6,286046999.7,N
1624656855.5,286046999.9,N
1624656875.3,286047000.8,N
1624656895.2,286047000.6,N
1624656915.9,286046998.7,N
1624656935.7,286046996.6,N
1624656955.6,286046998.3,N
1624656975.4,286046998.2,N
1624656995.2,286046998.9,N
1624657015.1,286047001.0,N
1624657016.0,286047001.0,N
1624657035.8,286046996.5,N
1624657055.7,286047000.8,N
1624657075.5,286047001.1,N
1624657095.3,286046998.7,N
1624657115.3,286047000.5,N
1624657135.1,286047000.0,N
1624657155.9,286047002.4,N
1624657175.7,286047001.7,N
1624657195.5,286047001.3,N
1624657215.4,286047000.3,N
1624657235.2,286047000.2,N
1624657255.0,286047002.5,N
1624657256.0,286047002.5,N
1624657275.8,286047002.5,N
1624657295.6,286047002.6,N
1624657315.5,286047002.2,N
1624657335.3,286047004.4,N
1624657355.1,286046999.7,N
1624657375.9,286046998.6,N
1624657395.7,286047001.2,N
1624657415.5,286046999.5,N
1624657435.4,286047000.7,N
1624657455.2,286047000.7,N
1624657475.1,286046999.8,N
1624657476.0,286046999.8,N
1624657495.8,286047001.0,N
1624657515.6,286047000.7,N
1624657535.5,286047000.9,N
1624657555.3,286047002.7,N
1624657575.2,286046999.9,N
1624657595.9,286047004.1,N
1624657615.7,286047002.5,N
1624657635.6,286047002.5,N
1624657655.4,286047002.1,N
1624657675.2,286047001.7,N
1624657695.1,286047001.3,N
1624657696.0,286047001.3,N
1624657745.8,286047003.5,E
1624657755.8,286047001.3,N
1624657775.6,286046998.8,P
1624657795.4,286046997.0,N
1624657815.3,286046995.3,N
1624657835.1,286046996.1,N
1624657855.8,286046994.9,N
1624657875.7,286046995.0,N
1624657895.5,286046995.1,N
1624657915.4,286046997.6,N
1624657935.2,286046995.3,N
1624657955.0,286046995.4,N
1624657955.9,286046995.4,N
1624657975.8,286046995.7,N
1624657995.6,286046997.5,N
1624658015.4,286046995.3,N
1624658035.3,286046997.6,N
1624658055.1,286046997.4,N
1624658075.9,286046997.3,N
1624658095.7,286046997.1,N
1624658115.5,286046997.4,N
1624658135.4,286046996.7,N
1624658155.2,286046997.1,N
1624658175.0,286046998.0,N
1624658175.9,286046998.0,N
1624658195.8,286046997.3,N
1624658215.6,286046998.0,N
1624658235.5,286046995.1,Y
1624658255.3,286046999.4,P
1624658275.1,286046996.6,N
1624658295.9,286046999.3,N
1624658315.7,286046999.0,N
1624658335.6,286046998.6,N
1624658355.4,286046998.8,N
1624658375.2,286047000.8,N
1624658395.1,286046998.6,N
1624658396.0,286046998.6,N
